Hourly Data Report for November 20, 2017

All times are specified in Local Standard Time (LST). Add 1 hour to adjust for Daylight Saving Time where and when it is observed.

SUDBURY A
ONTARIO

46°37'32.000" N
80°47'52.000" W
348.40 m
6068153
71730
YSB

Download Data

Hourly Data (November 2017)
Hourly Data Report for November 20, 2017
Temp Definition
°C
Dew Point Temp Definition
°C
Rel Hum Definition
%
Wind Dir Definition
10's deg

Wind Spd Definition
km/h
Visibility Definition
km
Stn Press Definition
kPa
Hmdx Definition


Wind Chill Definition


Weather Definition


TIME
00:00 Legend Double Dagger -9.2 -12.1 80 26 9 24.1 96.66   -14 Snow
01:00 Legend Double Dagger -9.2 -12.0 80 29 8 24.1 96.67   -14 Snow
02:00 Legend Double Dagger -9.5 -11.6 85 32 6 24.1 96.66   -13 Snow
03:00 Legend Double Dagger -9.6 -11.4 87 33 4 24.1 96.70   -12 Snow
04:00 Legend Double Dagger -9.7 -11.3 88 33 3 11.3 96.70   -11 Snow
05:00 Legend Double Dagger -9.8 -11.3 88 29 4 24.1 96.75   -12 Snow
06:00 Legend Double Dagger -9.5 -11.5 85 29 8 4.8 96.82   -14 Snow
07:00 Legend Double Dagger -9.8 -11.8 85 31 7 24.1 96.86   -14 Snow
08:00 Legend Double Dagger -10.6 -13.0 83 33 4 32.2 96.89   -13 Snow
09:00 Legend Double Dagger -10.0 -13.4 76 29 5 32.2 96.92   -13 Snow
10:00 Legend Double Dagger -9.1 -13.8 69 31 5 32.2 96.95   -12 Mostly Cloudy
11:00 Legend Double Dagger -8.4 -13.6 66 27 6 32.2 96.97   -12 Snow
12:00 Legend Double Dagger -7.8 -13.0 67 28 6 32.2 96.91   -11 LegendNANA
13:00 Legend Double Dagger -7.5 -13.0 65 22 4 32.2 96.86   -10 Snow
14:00 Legend Double Dagger -7.1 -12.4 66 17 5 32.2 96.80   -10 Snow
15:00 Legend Double Dagger -6.8 -11.6 69 18 16 32.2 96.78   -13 LegendNANA
16:00 Legend Double Dagger -7.0 -10.2 78 16 14 32.2 96.74   -13 Cloudy
17:00 Legend Double Dagger -7.1 -9.4 83 15 15 24.1 96.66   -13 LegendNANA
18:00 Legend Double Dagger -7.0 -9.1 86 15 14 24.1 96.61   -13 LegendNANA
19:00 Legend Double Dagger -6.7 -8.2 89 14 19 24.1 96.57   -14 Cloudy
20:00 Legend Double Dagger -6.4 -7.7 90 14 17 24.1 96.45   -13 Snow
21:00 Legend Double Dagger -5.8 -6.7 93 15 15 24.1 96.33   -12 Snow
22:00 Legend Double Dagger -4.7 -5.4 95 14 24 16.1 96.19   -12 Snow
23:00 Legend Double Dagger -4.0 -4.6 96 14 24 2.4 96.05   -11 Fog

Notes on Data Quality.

Legend

  • E = Estimated
  • M = Missing
  • NA = Not Available
  • ‡ = Partner data that is not subject to review by the National Climate Archives
Date modified: